{"data":{"norad_id":26857,"intl_designator":"2001-026A","name":"OMNI-M1","alt_names":[],"object_type":"PAYLOAD","status":"ACTIVE","operator":null,"country":"NICO","launch_date":"2001-06-19","launch_site_code":"AFETR","launch_vehicle":null,"mission":null,"orbit_class":"UNKNOWN","rcs_meters":33.183,"size_class":null,"mass_kg":null,"dimensions":null,"purposes":[],"wikipedia_slug":null,"has_3d_model":false,"image_url":null,"decayed_at":null,"tle_current":{"epoch":"2026-05-22T11:51:02.700000Z","epoch_age_seconds":302076,"freshness":"STALE","line1":"1 26857U 01026A   26142.49378125 -.00000031  00000+0  00000+0 0  9994","line2":"2 26857  44.8394 251.1861 0015128  49.3064 310.8570  3.92401464204563","mean_motion":3.92401464,"eccentricity":0.0015128,"inclination_deg":44.8394,"raan_deg":251.1861,"arg_perigee_deg":49.3064,"mean_anomaly_deg":310.857,"bstar":0,"rev_number":20456,"period_min":366.97110793654,"perigee_km":10575.280758337,"apogee_km":10626.652734632,"semimajor_km":16979.103746484,"source":"CELESTRAK","updated_at":"2026-05-25T13:37:55.025809Z"}}}